"Period start","avg(HW err(1)/warn(2) (#))","avg(Visibility (m))","avg(Weather code (#))","avg(Precip intensity (mm/h))","min(HW err(1)/warn(2) (#))","max(HW err(1)/warn(2) (#))","std(HW err(1)/warn(2) (#))","med(HW err(1)/warn(2) (#))","min(Visibility (m))","max(Visibility (m))","std(Visibility (m))","med(Visibility (m))","min(Weather code (#))","max(Weather code (#))","std(Weather code (#))","med(Weather code (#))","min(Precip intensity (mm/h))","max(Precip intensity (mm/h))","std(Precip intensity (mm/h))","med(Precip intensity (mm/h))"
2013-09-24 00:00:00,2,2778,77,0.04,2,2,0,2,2375,3332,311,2800,77,77,0,77,0.00,0.10,0.03,0.05
2013-09-24 00:10:00,2,2286,77,0.09,2,2,0,2,1909,3011,389,2102,77,77,0,77,0.05,0.15,0.03,0.10
2013-09-24 00:20:00,2,1897,77,0.23,2,2,0,2,1735,2114,106,1884,77,77,0,77,0.15,0.35,0.08,0.20
2013-09-24 00:30:00,2,1995,74,0.18,2,2,0,2,1801,2230,136,2026,71,77,3,74,0.10,0.30,0.06,0.20
2013-09-24 00:40:00,2,2251,75,0.22,2,2,0,2,1780,2776,292,2180,71,77,3,77,0.05,0.70,0.19,0.15
2013-09-24 00:50:00,2,2738,71,0.32,2,2,0,2,2261,3182,342,2856,71,71,0,71,0.10,0.60,0.17,0.30
2013-09-24 01:00:00,2,2719,71,0.41,2,2,0,2,2355,3329,322,2568,71,71,0,71,0.35,0.55,0.07,0.38
2013-09-24 01:10:00,2,2978,71,0.45,2,2,0,2,2551,3320,268,3034,71,71,0,71,0.25,0.70,0.14,0.40
2013-09-24 01:20:00,2,2508,72,0.28,2,2,0,2,1986,3115,310,2432,71,77,2,71,0.15,0.45,0.09,0.30
2013-09-24 01:30:00,2,3304,74,0.07,2,2,0,2,2273,4192,691,3307,71,77,3,74,0.05,0.15,0.03,0.05
2013-09-24 01:40:00,2,3936,77,0.04,2,2,0,2,2829,5600,876,3898,77,77,0,77,0.00,0.10,0.04,0.05
2013-09-24 01:50:00,2,5037,77,0.03,2,2,0,2,4268,5998,506,4848,77,77,0,77,0.00,0.05,0.02,0.05
2013-09-24 02:00:00,2,5480,77,0.03,2,2,0,2,4223,7086,941,5284,77,77,0,77,0.00,0.05,0.03,0.03
2013-09-24 02:10:00,2,6664,77,0.03,2,2,0,2,4896,8393,938,6746,77,77,0,77,0.00,0.05,0.02,0.05
2013-09-24 02:20:00,2,8097,77,0.03,2,2,0,2,7144,9616,662,8140,77,77,0,77,0.00,0.05,0.03,0.03
2013-09-24 02:30:00,2,11509,77,0.01,2,2,0,2,9285,14924,1927,11360,77,77,0,77,0.00,0.05,0.02,0.00
2013-09-24 02:40:00,2,12139,77,0.00,2,2,0,2,8062,14880,1897,12644,77,77,0,77,0.00,0.00,0.00,0.00
2013-09-24 02:50:00,2,7686,77,0.00,2,2,0,2,6031,9881,992,7400,77,77,0,77,0.00,0.00,0.00,0.00
2013-09-24 03:00:00,2,9252,30,0.00,2,2,0,2,8667,9933,365,9241,10,77,31,10,0.00,0.00,0.00,0.00
2013-09-24 03:10:00,2,14901,10,0.00,2,2,0,2,11278,20331,2412,14802,0,41,11,10,0.00,0.00,0.00,0.00
2013-09-24 03:20:00,2,14037,55,0.01,2,2,0,2,11888,16821,1333,14053,41,77,14,51,0.00,0.05,0.02,0.00
2013-09-24 03:30:00,2,13847,76,0.01,2,2,0,2,9419,20688,3170,12990,71,77,2,77,0.00,0.05,0.02,0.00
2013-09-24 03:40:00,2,6456,77,0.11,2,2,0,2,5154,9075,1319,6054,77,77,0,77,0.05,0.20,0.06,0.10
2013-09-24 03:50:00,2,5296,74,0.18,2,2,0,2,4420,5942,441,5356,71,77,3,74,0.10,0.35,0.08,0.15
2013-09-24 04:00:00,2,8473,76,0.04,2,2,0,2,6255,9882,930,8492,71,77,2,77,0.00,0.20,0.06,0.03
2013-09-24 04:10:00,2,7965,76,0.11,2,2,0,2,5430,10995,1606,8098,71,77,2,77,0.00,0.30,0.11,0.08
2013-09-24 04:20:00,2,9056,73,0.10,2,2,0,2,7135,10768,993,8934,71,77,3,71,0.00,0.35,0.10,0.10
2013-09-24 04:30:00,2,11636,77,0.00,2,2,0,2,9675,13431,1287,11390,77,77,0,77,0.00,0.00,0.00,0.00
2013-09-24 04:40:00,2,13256,77,0.00,2,2,0,2,10992,17692,2174,12366,77,77,0,77,0.00,0.00,0.00,0.00
2013-09-24 04:50:00,2,18930,69,0.00,2,2,0,2,15101,22094,2094,18730,0,77,23,77,0.00,0.00,0.00,0.00
2013-09-24 05:00:00,2,19207,4,0.00,2,2,0,2,16646,22000,1730,19006,0,41,12,0,0.00,0.00,0.00,0.00
2013-09-24 05:10:00,2,7516,47,0.04,2,2,0,2,3170,16899,4314,6834,41,61,9,41,0.00,0.40,0.12,0.00
2013-09-24 05:20:00,2,2326,68,0.14,2,2,0,2,1414,4090,921,1820,61,77,6,71,0.05,0.25,0.06,0.15
2013-09-24 05:30:00,2,2492,71,0.55,2,2,0,2,1820,5072,921,2175,67,71,1,71,0.30,1.00,0.22,0.50
2013-09-24 05:40:00,2,2650,64,1.65,2,2,0,2,2188,2922,258,2707,61,67,3,64,0.95,2.55,0.59,1.45
2013-09-24 05:50:00,2,2467,68,1.06,2,2,0,2,1871,3324,443,2438,61,74,4,67,0.55,1.90,0.46,0.97
2013-09-24 06:00:00,2,2837,69,0.53,2,2,0,2,2291,4340,581,2604,67,71,2,67,0.30,0.95,0.19,0.50
2013-09-24 06:10:00,2,3477,66,0.30,2,2,0,2,2567,4415,552,3608,61,71,4,67,0.10,0.55,0.14,0.25
2013-09-24 06:20:00,2,8627,66,0.12,2,2,0,2,6196,10364,1466,8892,61,71,5,66,0.00,0.25,0.08,0.12
2013-09-24 06:30:00,2,9561,71,0.23,2,2,0,2,6857,12274,1484,9634,71,71,0,71,0.00,0.55,0.17,0.15
2013-09-24 06:40:00,2,9106,65,0.05,2,2,0,2,7506,13213,1537,8780,41,71,12,71,0.00,0.15,0.04,0.05
2013-09-24 06:50:00,2,7786,71,0.08,2,2,0,2,6879,8821,625,7548,71,71,0,71,0.00,0.20,0.07,0.05
2013-09-24 07:00:00,2,8517,71,0.06,2,2,0,2,7600,10448,769,8230,71,71,0,71,0.00,0.25,0.08,0.03
2013-09-24 07:10:00,2,12584,74,0.02,2,2,0,2,8672,16745,2580,12606,71,77,3,74,0.00,0.10,0.03,0.00
2013-09-24 07:20:00,2,16218,71,0.03,2,2,0,2,12043,21798,3099,17012,71,71,0,71,0.00,0.10,0.03,0.03
2013-09-24 07:30:00,2,12432,73,0.07,2,2,0,2,9077,16147,2286,11806,71,77,3,71,0.00,0.25,0.09,0.03
2013-09-24 07:40:00,2,13747,71,0.07,2,2,0,2,9450,19213,2794,13951,71,71,0,71,0.00,0.20,0.06,0.08
2013-09-24 07:50:00,2,20190,71,0.02,2,2,0,2,15185,26766,3143,20010,71,71,0,71,0.00,0.05,0.02,0.00
2013-09-24 08:00:00,2,10023,73,0.03,2,2,0,2,5344,23949,5589,7368,71,77,3,71,0.00,0.15,0.05,0.00
2013-09-24 08:10:00,2,11635,72,0.02,2,2,0,2,6018,23610,6277,7804,71,77,2,71,0.00,0.10,0.03,0.00
2013-09-24 08:20:00,2,24645,75,0.00,2,2,0,2,15324,32930,5681,26270,71,77,3,77,0.00,0.00,0.00,0.00
2013-09-24 08:30:00,2,35287,76,0.00,2,2,0,2,28831,43765,5075,36126,71,77,2,77,0.00,0.00,0.00,0.00
2013-09-24 08:40:00,2,29107,74,0.03,2,2,0,2,14517,38427,7315,30484,71,77,3,74,0.00,0.10,0.04,0.00
2013-09-24 08:50:00,2,12183,71,0.04,2,2,0,2,9864,19408,2805,11346,71,71,0,71,0.00,0.15,0.05,0.03
2013-09-24 09:00:00,2,16046,76,0.03,2,2,0,2,10017,21290,3725,16622,71,77,2,77,0.00,0.05,0.02,0.05
2013-09-24 09:10:00,2,7569,73,0.07,2,2,0,2,6237,10241,1161,7328,71,77,3,71,0.00,0.35,0.10,0.05
2013-09-24 09:20:00,2,6794,73,0.02,2,2,0,2,4740,11608,2040,6212,71,77,3,71,0.00,0.10,0.03,0.00
2013-09-24 09:30:00,2,6735,74,0.02,2,2,0,2,3255,12398,3701,4670,71,77,3,74,0.00,0.10,0.03,0.00
2013-09-24 09:40:00,2,4946,73,0.02,2,2,0,2,3548,7678,1516,4370,71,77,3,71,0.00,0.05,0.02,0.00
2013-09-24 09:50:00,2,9426,73,0.05,2,2,0,2,7244,12356,1583,9710,71,77,3,71,0.00,0.15,0.05,0.03
2013-09-24 10:00:00,2,15748,71,0.11,2,2,0,2,10789,22325,2844,15730,71,71,0,71,0.00,0.40,0.14,0.05
2013-09-24 10:10:00,2,17440,71,0.04,2,2,0,2,11897,23899,3472,18112,71,71,0,71,0.00,0.10,0.04,0.05
2013-09-24 10:20:00,2,6359,71,0.11,2,2,0,2,3553,10497,2126,5532,71,71,0,71,0.00,0.35,0.10,0.05
2013-09-24 10:30:00,2,7798,71,0.10,2,2,0,2,5183,10774,1783,7270,71,71,0,71,0.05,0.15,0.04,0.10
2013-09-24 10:40:00,2,11293,71,0.03,2,2,0,2,7963,13588,1517,11341,71,71,0,71,0.00,0.10,0.03,0.03
2013-09-24 10:50:00,2,10433,71,0.06,2,2,0,2,8226,13177,1317,10342,71,71,0,71,0.00,0.25,0.07,0.05
2013-09-24 11:00:00,2,8869,74,0.08,2,2,0,2,7086,10695,1195,9108,71,77,3,74,0.00,0.25,0.07,0.08
2013-09-24 11:10:00,2,11839,73,0.04,2,2,0,2,10119,14264,1286,11775,71,77,3,71,0.00,0.10,0.03,0.05
2013-09-24 11:20:00,2,9875,73,0.09,2,2,0,2,7997,12918,1548,9772,71,77,3,71,0.00,0.20,0.08,0.05
2013-09-24 11:30:00,2,8798,71,0.17,2,2,0,2,5486,11220,1666,9097,71,71,0,71,0.05,0.50,0.14,0.15
2013-09-24 11:40:00,2,14146,71,0.05,2,2,0,2,9666,20808,3438,13426,71,71,0,71,0.00,0.10,0.03,0.05
2013-09-24 11:50:00,2,17475,74,0.06,2,2,0,2,13847,21130,2192,17438,71,77,3,74,0.00,0.15,0.05,0.05
2013-09-24 12:00:00,2,15099,73,0.07,2,2,0,2,10963,23720,3970,13568,71,77,3,71,0.00,0.20,0.07,0.05
2013-09-24 12:10:00,2,10426,73,0.11,2,2,0,2,4264,18170,4111,10930,71,77,3,71,0.00,0.50,0.14,0.05
2013-09-24 12:20:00,2,11556,71,0.13,2,2,0,2,9064,15701,1866,11202,71,71,0,71,0.00,0.55,0.17,0.05
2013-09-24 12:30:00,2,8957,71,0.10,2,2,0,2,3779,16518,4690,7876,71,71,0,71,0.00,0.30,0.10,0.05
2013-09-24 12:40:00,2,12005,71,0.12,2,2,0,2,3474,17125,4802,13774,71,71,0,71,0.00,0.40,0.14,0.05
2013-09-24 12:50:00,2,13057,71,0.14,2,2,0,2,8510,22036,3807,12406,71,71,0,71,0.00,0.80,0.23,0.05
2013-09-24 13:00:00,2,15225,75,0.01,2,2,0,2,6135,24670,7178,16718,71,77,3,77,0.00,0.05,0.02,0.00
2013-09-24 13:10:00,2,4198,72,0.41,2,2,0,2,1932,10066,2970,2660,71,77,2,71,0.10,1.00,0.29,0.38
2013-09-24 13:20:00,2,10047,71,0.08,2,2,0,2,7924,13550,1941,9442,71,71,0,71,0.00,0.25,0.11,0.00
2013-09-24 13:30:00,2,12882,71,0.06,2,2,0,2,9708,15796,2033,12898,71,71,0,71,0.00,0.20,0.07,0.03
2013-09-24 13:40:00,2,16395,71,0.07,2,2,0,2,9634,24676,5548,13448,71,71,0,71,0.00,0.20,0.07,0.05
2013-09-24 13:50:00,2,17977,75,0.01,2,2,0,2,14052,21517,2467,18768,71,77,3,77,0.00,0.05,0.02,0.00
2013-09-24 14:00:00,2,13577,73,0.03,2,2,0,2,7737,20353,4199,12791,71,77,3,71,0.00,0.15,0.05,0.00
2013-09-24 14:10:00,2,12760,72,0.02,2,2,0,2,3690,28267,8211,13706,71,77,2,71,0.00,0.10,0.03,0.00
2013-09-24 14:20:00,2,23526,60,0.01,2,2,0,2,14866,30554,4463,24295,0,77,30,77,0.00,0.05,0.02,0.00
2013-09-24 14:30:00,2,13209,64,0.01,2,2,0,2,8092,17622,2989,13231,0,71,21,71,0.00,0.05,0.02,0.00
2013-09-24 14:40:00,2,14065,76,0.02,2,2,0,2,4513,25552,8154,11626,71,77,2,77,0.00,0.10,0.03,0.00
2013-09-24 14:50:00,2,10382,75,0.01,2,2,0,2,6597,17362,3464,8693,71,77,3,77,0.00,0.05,0.02,0.00
2013-09-24 15:00:00,2,12812,75,0.01,2,2,0,2,7173,22442,5249,10854,71,77,3,77,0.00,0.05,0.02,0.00
2013-09-24 15:10:00,2,15072,75,0.00,2,2,0,2,10107,26190,4923,13542,71,77,3,77,0.00,0.00,0.00,0.00
2013-09-24 15:20:00,2,10959,17,0.00,2,2,0,2,3374,28187,8634,8478,0,77,30,0,0.00,0.00,0.00,0.00
2013-09-24 15:30:00,2,41958,17,0.00,2,2,0,2,15821,50000,10635,46846,0,41,16,10,0.00,0.00,0.00,0.00
2013-09-24 15:40:00,2,39689,44,0.02,2,2,0,2,13155,50000,11737,43154,0,77,36,71,0.00,0.20,0.06,0.00
2013-09-24 15:50:00,2,38197,52,0.00,2,2,0,2,12033,49435,13623,45214,0,77,34,71,0.00,0.00,0.00,0.00
2013-09-24 16:00:00,2,17922,21,0.00,2,2,0,2,3890,47947,15740,8405,0,77,28,10,0.00,0.00,0.00,0.00
2013-09-24 16:10:00,2,43043,31,0.01,2,2,0,2,30980,50000,6337,41489,0,77,34,10,0.00,0.05,0.02,0.00
2013-09-24 16:20:00,2,45049,76,0.00,2,2,0,2,36641,50000,4364,45820,71,77,2,77,0.00,0.00,0.00,0.00
2013-09-24 16:30:00,2,48079,37,0.00,2,2,0,2,39802,50000,3115,50000,0,77,37,36,0.00,0.00,0.00,0.00
2013-09-24 16:40:00,2,45083,0,0.00,2,2,0,2,35659,50000,4605,46460,0,0,0,0,0.00,0.00,0.00,0.00
2013-09-24 16:50:00,2,29244,0,0.00,2,2,0,2,22011,49965,8251,26709,0,0,0,0,0.00,0.00,0.00,0.00
2013-09-24 17:00:00,2,35262,0,0.00,2,2,0,2,11159,50000,13154,38037,0,0,0,0,0.00,0.00,0.00,0.00
2013-09-24 17:10:00,2,10525,0,0.00,2,2,0,2,8956,13070,1314,10372,0,0,0,0,0.00,0.00,0.00,0.00
2013-09-24 17:20:00,2,36679,0,0.00,2,2,0,2,9371,50000,16488,47406,0,0,0,0,0.00,0.00,0.00,0.00
2013-09-24 17:30:00,2,50000,0,0.00,2,2,0,2,50000,50000,0,50000,0,0,0,0,0.00,0.00,0.00,0.00
2013-09-24 17:40:00,2,50000,0,0.00,2,2,0,2,50000,50000,0,50000,0,0,0,0,0.00,0.00,0.00,0.00
2013-09-24 17:50:00,2,50000,0,0.00,2,2,0,2,50000,50000,0,50000,0,0,0,0,0.00,0.00,0.00,0.00
2013-09-24 18:00:00,2,50000,0,0.00,2,2,0,2,50000,50000,0,50000,0,0,0,0,0.00,0.00,0.00,0.00
2013-09-24 18:10:00,2,50000,0,0.00,2,2,0,2,50000,50000,0,50000,0,0,0,0,0.00,0.00,0.00,0.00
2013-09-24 18:20:00,2,50000,0,0.00,2,2,0,2,50000,50000,0,50000,0,0,0,0,0.00,0.00,0.00,0.00
2013-09-24 18:30:00,2,50000,0,0.00,2,2,0,2,50000,50000,0,50000,0,0,0,0,0.00,0.00,0.00,0.00
2013-09-24 18:40:00,2,50000,0,0.00,2,2,0,2,50000,50000,0,50000,0,0,0,0,0.00,0.00,0.00,0.00
2013-09-24 18:50:00,2,50000,0,0.00,2,2,0,2,50000,50000,0,50000,0,0,0,0,0.00,0.00,0.00,0.00
2013-09-24 19:00:00,2,50000,0,0.00,2,2,0,2,50000,50000,0,50000,0,0,0,0,0.00,0.00,0.00,0.00
2013-09-24 19:10:00,2,50000,0,0.00,2,2,0,2,50000,50000,0,50000,0,0,0,0,0.00,0.00,0.00,0.00
2013-09-24 19:20:00,2,50000,0,0.00,2,2,0,2,50000,50000,0,50000,0,0,0,0,0.00,0.00,0.00,0.00
2013-09-24 19:30:00,2,50000,0,0.00,2,2,0,2,50000,50000,0,50000,0,0,0,0,0.00,0.00,0.00,0.00
2013-09-24 19:40:00,2,50000,0,0.00,2,2,0,2,50000,50000,0,50000,0,0,0,0,0.00,0.00,0.00,0.00
2013-09-24 19:50:00,2,50000,0,0.00,2,2,0,2,50000,50000,0,50000,0,0,0,0,0.00,0.00,0.00,0.00
2013-09-24 20:00:00,2,50000,0,0.00,2,2,0,2,50000,50000,0,50000,0,0,0,0,0.00,0.00,0.00,0.00
2013-09-24 20:10:00,2,50000,0,0.00,2,2,0,2,50000,50000,0,50000,0,0,0,0,0.00,0.00,0.00,0.00
2013-09-24 20:20:00,2,50000,0,0.00,2,2,0,2,50000,50000,0,50000,0,0,0,0,0.00,0.00,0.00,0.00
2013-09-24 20:30:00,2,50000,0,0.00,2,2,0,2,50000,50000,0,50000,0,0,0,0,0.00,0.00,0.00,0.00
2013-09-24 20:40:00,2,50000,0,0.00,2,2,0,2,50000,50000,0,50000,0,0,0,0,0.00,0.00,0.00,0.00
2013-09-24 20:50:00,2,50000,0,0.00,2,2,0,2,50000,50000,0,50000,0,0,0,0,0.00,0.00,0.00,0.00
2013-09-24 21:00:00,2,50000,0,0.00,2,2,0,2,50000,50000,0,50000,0,0,0,0,0.00,0.00,0.00,0.00
2013-09-24 21:10:00,2,50000,0,0.00,2,2,0,2,50000,50000,0,50000,0,0,0,0,0.00,0.00,0.00,0.00
2013-09-24 21:20:00,2,50000,0,0.00,2,2,0,2,50000,50000,0,50000,0,0,0,0,0.00,0.00,0.00,0.00
2013-09-24 21:30:00,2,50000,0,0.00,2,2,0,2,50000,50000,0,50000,0,0,0,0,0.00,0.00,0.00,0.00
2013-09-24 21:40:00,2,50000,0,0.00,2,2,0,2,50000,50000,0,50000,0,0,0,0,0.00,0.00,0.00,0.00
2013-09-24 21:50:00,2,50000,0,0.00,2,2,0,2,50000,50000,0,50000,0,0,0,0,0.00,0.00,0.00,0.00
2013-09-24 22:00:00,2,50000,0,0.00,2,2,0,2,50000,50000,0,50000,0,0,0,0,0.00,0.00,0.00,0.00
2013-09-24 22:10:00,2,50000,0,0.00,2,2,0,2,50000,50000,0,50000,0,0,0,0,0.00,0.00,0.00,0.00
2013-09-24 22:20:00,2,49833,0,0.00,2,2,0,2,48854,50000,362,50000,0,0,0,0,0.00,0.00,0.00,0.00
2013-09-24 22:30:00,2,50000,0,0.00,2,2,0,2,50000,50000,0,50000,0,0,0,0,0.00,0.00,0.00,0.00
2013-09-24 22:40:00,2,49486,0,0.00,2,2,0,2,47051,50000,921,50000,0,0,0,0,0.00,0.00,0.00,0.00
2013-09-24 22:50:00,2,48520,0,0.00,2,2,0,2,43595,50000,2152,50000,0,0,0,0,0.00,0.00,0.00,0.00
2013-09-24 23:00:00,2,50000,0,0.00,2,2,0,2,50000,50000,0,50000,0,0,0,0,0.00,0.00,0.00,0.00
2013-09-24 23:10:00,2,50000,0,0.00,2,2,0,2,50000,50000,0,50000,0,0,0,0,0.00,0.00,0.00,0.00
2013-09-24 23:20:00,2,27058,4,0.07,2,2,0,2,2641,38170,11163,32320,0,40,12,0,0.00,0.75,0.23,0.00
2013-09-24 23:30:00,2,1341,68,5.56,2,2,0,2,533,2445,683,1120,40,71,9,71,1.40,13.85,4.16,3.85
2013-09-24 23:40:00,2,4280,71,1.88,2,2,0,2,996,10747,3563,3098,71,71,0,71,0.05,4.30,1.74,1.12
2013-09-24 23:50:00,2,17734,62,0.27,2,2,0,2,8230,42932,9991,14049,61,71,3,61,0.05,0.70,0.23,0.15
